CZ-6A DEB, 54912

Orbit data source: Space-Track

CZ-6A DEB, 54912 is space debris in SSO originally from a launch on Fri, 11 Nov 2022 UTC launched from the Taiyaun Space Center, China (TSC). Debris objects in space refer to the collection of defunct objects orbiting the Earth. Examples of debris include non-operational satellites, rocket bodies, and fragments generated from explosions, collisions, or faulty payload assembly.

Loading next visibility...
Identifier
54912, 2022-151QZ
Orbit
SSO
Country
Flag of CNCN / PRC
Related business
Manufacturer
SAST
Mission
Spacecraft
Bus & Motor
Unknown
Mass
Unknown
Launch date (UTC)
2022-11-11 (4 years ago)
Launch vehicle
Unknown
Launch site
Taiyaun Space Center, China (TSC)
Object type
Payload
Rocket body
Debris
Shape & HBR
Unknown shape, 0.1 m
Radar Cross Section
Medium (>0.1 m² and <1 m²)

Expand to show TLE details & history
Last TLE update: 2 days ago

TLE from 2 days ago
0 CZ-6A DEB
1 54912U 22151QZ  26171.20212310  .00005126  00000-0  87688-3 0  9994
2 54912  98.7611 257.9015 0094573 302.0978  57.1069 14.66424345187082
Epoch: 2026-06-20T04:51Z
TLE epoch observation values (Epoch: 2026-06-20T04:51:03.435Z)
Latitude
-0.00007°
Longitude
-83.28293°
Altitude
639.711 km
Speed
7.557 km/s
True Right ascension
17h 11m 36s
True Declination
0° 00' 00"
Sunlit
Object was in full shadow at epoch
Visualization orbit readout
Latitude
Unknown
Longitude
Unknown
Altitude
Unknown
Speed
Unknown
Apparent Right ascension
Unknown
Apparent Declination
Unknown
Sunlit
N/A
Visualization observer readout
Local Sidereal Time
21:28:32
Azimuth
Unknown
Elevation
Unknown
Doppler factor
Unknown
Orbital elements
Apogee altitude
736.258 km
Perigee altitude
602.952 km
Semi-major axis
7,047.742 km
Eccentricity
0.00946
Inclination
98.7611°
RAAN
257.9015°
Arg. of periapsis
302.0978°
True anomaly
58.02273°
Mean anomaly
57.1069°
Eccentric anomaly
57.56423°
Mean motion
3.66833 °/min
Orbital period
98.14 mins
BSTAR
0.00087688
Loading maneuver chart data...
Computing Atmospheric mass density...
Loading historical data...
Loading historical data...
Loading historical data...
Loading historical data...
Loading historical data...
Loading historical data...
Loading historical data...

Documentation

Showing up to 5 results
|